Time,TemperatureF,DewpointF,PressureIn,WindDirection,WindDirectionDegrees,WindSpeedMPH,WindSpeedGustMPH,Humidity,HourlyPrecipIn,Conditions,Clouds,dailyrainin,SoftwareType,DateUTC
2013-05-01 00:05:00,71.8,53.2,29.78,South,183,4.0,4.0,52,0.00,,,0.00,Wunderground v.1.13,2013-05-01 05:05:00,
2013-05-01 00:15:00,71.6,53.6,29.79,SSW,198,4.0,4.0,53,0.00,,,0.00,Wunderground v.1.13,2013-05-01 05:15:00,
2013-05-01 00:25:00,71.5,53.5,29.79,South,185,4.0,4.0,53,0.00,,,0.00,Wunderground v.1.13,2013-05-01 05:25:00,
2013-05-01 00:40:00,71.3,53.8,29.79,South,187,4.0,4.0,54,0.00,,,0.00,Wunderground v.1.13,2013-05-01 05:40:00,
2013-05-01 00:50:00,71.3,53.3,29.79,SSE,167,4.0,14.0,53,0.00,,,0.00,Wunderground v.1.13,2013-05-01 05:50:00,
2013-05-01 01:00:00,71.3,53.3,29.80,South,188,4.0,4.0,53,0.00,,,0.00,Wunderground v.1.13,2013-05-01 06:00:00,
2013-05-01 01:05:00,71.3,53.3,29.80,South,180,3.0,11.0,53,0.00,,,0.00,Wunderground v.1.13,2013-05-01 06:05:00,
2013-05-01 01:15:00,71.1,53.6,29.80,SSW,194,3.0,3.0,54,0.00,,,0.00,Wunderground v.1.13,2013-05-01 06:15:00,
2013-05-01 01:25:00,70.9,53.4,29.81,SSW,202,4.0,4.0,54,0.00,,,0.00,Wunderground v.1.13,2013-05-01 06:25:00,
2013-05-01 01:35:00,70.8,53.8,29.81,SSW,193,2.0,11.0,55,0.00,,,0.00,Wunderground v.1.13,2013-05-01 06:35:00,
2013-05-01 01:40:00,70.6,53.1,29.81,South,177,2.0,11.0,54,0.00,,,0.00,Wunderground v.1.13,2013-05-01 06:40:00,
2013-05-01 01:45:00,70.4,53.5,29.81,South,183,3.0,3.0,55,0.00,,,0.00,Wunderground v.1.13,2013-05-01 06:45:00,
2013-05-01 01:50:00,70.3,53.4,29.81,South,171,2.0,2.0,55,0.00,,,0.00,Wunderground v.1.13,2013-05-01 06:50:00,
2013-05-01 02:00:00,69.6,53.2,29.80,SSE,147,1.0,1.0,56,0.00,,,0.00,Wunderground v.1.13,2013-05-01 07:00:00,
2013-05-01 02:05:00,69.3,52.9,29.80,SSE,153,2.0,2.0,56,0.00,,,0.00,Wunderground v.1.13,2013-05-01 07:05:00,
2013-05-01 02:15:00,68.8,52.9,29.80,South,177,2.0,10.0,57,0.00,,,0.00,Wunderground v.1.13,2013-05-01 07:15:00,
2013-05-01 02:25:00,68.4,53.0,29.81,SSE,157,3.0,3.0,58,0.00,,,0.00,Wunderground v.1.13,2013-05-01 07:25:00,
2013-05-01 02:35:00,67.9,53.0,29.81,WNW,298,2.0,8.0,59,0.00,,,0.00,Wunderground v.1.13,2013-05-01 07:35:00,
2013-05-01 02:40:00,67.6,53.2,29.82,WNW,302,3.0,8.0,60,0.00,,,0.00,Wunderground v.1.13,2013-05-01 07:40:00,
2013-05-01 02:50:00,67.1,53.2,29.82,West,277,3.0,8.0,61,0.00,,,0.00,Wunderground v.1.13,2013-05-01 07:50:00,
2013-05-01 02:55:00,67.3,53.4,29.82,West,273,3.0,8.0,61,0.00,,,0.00,Wunderground v.1.13,2013-05-01 07:55:00,
2013-05-01 03:05:00,67.6,53.2,29.82,WNW,283,2.0,10.0,60,0.00,,,0.00,Wunderground v.1.13,2013-05-01 08:05:00,
2013-05-01 03:15:00,65.3,48.2,29.84,NNW,330,4.0,4.0,54,0.00,,,0.00,Wunderground v.1.13,2013-05-01 08:15:00,
2013-05-01 03:25:00,63.5,47.0,29.84,NNW,330,1.0,1.0,55,0.00,,,0.00,Wunderground v.1.13,2013-05-01 08:25:00,
2013-05-01 03:35:00,62.4,47.0,29.84,NNW,331,1.0,1.0,57,0.00,,,0.00,Wunderground v.1.13,2013-05-01 08:35:00,
2013-05-01 03:45:00,61.5,47.0,29.84,NNW,331,1.0,1.0,59,0.00,,,0.00,Wunderground v.1.13,2013-05-01 08:45:00,
2013-05-01 03:50:00,61.2,46.8,29.84,NNW,331,0.0,11.0,59,0.00,,,0.00,Wunderground v.1.13,2013-05-01 08:50:00,
2013-05-01 03:55:00,60.7,46.7,29.85,NNW,331,0.0,11.0,60,0.00,,,0.00,Wunderground v.1.13,2013-05-01 08:55:00,
2013-05-01 04:05:00,60.1,46.6,29.86,NNW,331,0.0,8.0,61,0.00,,,0.00,Wunderground v.1.13,2013-05-01 09:05:00,
2013-05-01 04:15:00,59.5,46.9,29.86,NNW,331,0.0,8.0,63,0.00,,,0.00,Wunderground v.1.13,2013-05-01 09:15:00,
2013-05-01 04:25:00,58.9,46.7,29.86,NNW,331,0.0,8.0,64,0.00,,,0.00,Wunderground v.1.13,2013-05-01 09:25:00,
2013-05-01 04:30:00,58.6,46.9,29.86,NNW,331,0.0,5.0,65,0.00,,,0.00,Wunderground v.1.13,2013-05-01 09:30:00,
2013-05-01 04:40:00,58.3,47.0,29.87,NNW,331,0.0,5.0,66,0.00,,,0.00,Wunderground v.1.13,2013-05-01 09:40:00,
2013-05-01 04:45:00,58.0,46.7,29.87,NNW,331,0.0,5.0,66,0.00,,,0.00,Wunderground v.1.13,2013-05-01 09:45:00,
2013-05-01 04:55:00,57.3,46.4,29.87,NNW,331,0.0,5.0,67,0.00,,,0.00,Wunderground v.1.13,2013-05-01 09:55:00,
2013-05-01 05:05:00,56.9,46.8,29.87,NNW,331,0.0,0.0,69,0.00,,,0.00,Wunderground v.1.13,2013-05-01 10:05:00,
2013-05-01 05:15:00,56.5,46.4,29.87,NNW,331,0.0,0.0,69,0.00,,,0.00,Wunderground v.1.13,2013-05-01 10:15:00,
2013-05-01 05:25:00,56.0,46.4,29.88,NNW,331,0.0,0.0,70,0.00,,,0.00,Wunderground v.1.13,2013-05-01 10:25:00,
2013-05-01 05:30:00,55.9,46.6,29.88,NNW,331,0.0,0.0,71,0.00,,,0.00,Wunderground v.1.13,2013-05-01 10:30:00,
2013-05-01 05:40:00,55.6,46.7,29.89,NNW,331,0.0,0.0,72,0.00,,,0.00,Wunderground v.1.13,2013-05-01 10:40:00,
2013-05-01 05:50:00,55.1,46.6,29.89,NNW,331,0.0,0.0,73,0.00,,,0.00,Wunderground v.1.13,2013-05-01 10:50:00,
2013-05-01 06:00:00,55.0,46.9,29.89,NNW,331,0.0,0.0,74,0.00,,,0.00,Wunderground v.1.13,2013-05-01 11:00:00,
2013-05-01 06:05:00,55.0,47.2,29.89,NNW,331,0.0,0.0,75,0.00,,,0.00,Wunderground v.1.13,2013-05-01 11:05:00,
2013-05-01 06:15:00,55.0,48.3,29.90,NNW,331,0.0,0.0,78,0.00,,,0.00,Wunderground v.1.13,2013-05-01 11:15:00,
2013-05-01 06:20:00,55.3,48.9,29.90,NNW,331,0.0,0.0,79,0.00,,,0.00,Wunderground v.1.13,2013-05-01 11:20:00,
2013-05-01 06:30:00,56.0,50.3,29.91,NNW,331,0.0,0.0,81,0.00,,,0.00,Wunderground v.1.13,2013-05-01 11:30:00,
2013-05-01 06:35:00,56.9,51.1,29.91,NNW,331,0.0,0.0,81,0.00,,,0.00,Wunderground v.1.13,2013-05-01 11:35:00,
2013-05-01 06:40:00,57.6,51.1,29.91,NNW,331,0.0,0.0,79,0.00,,,0.00,Wunderground v.1.13,2013-05-01 11:40:00,
2013-05-01 06:50:00,58.6,50.3,29.91,NNW,331,0.0,0.0,74,0.00,,,0.00,Wunderground v.1.13,2013-05-01 11:50:00,
2013-05-01 06:55:00,58.9,50.3,29.91,NNW,331,0.0,0.0,73,0.00,,,0.00,Wunderground v.1.13,2013-05-01 11:55:00,
2013-05-01 07:00:00,59.3,49.5,29.91,WNW,292,1.0,1.0,70,0.00,,,0.00,Wunderground v.1.13,2013-05-01 12:00:00,
2013-05-01 07:05:00,59.6,49.4,29.93,WNW,293,3.0,5.0,69,0.00,,,0.00,Wunderground v.1.13,2013-05-01 12:05:00,
2013-05-01 07:15:00,59.5,49.3,29.93,WNW,293,4.0,6.0,69,0.00,,,0.00,Wunderground v.1.13,2013-05-01 12:15:00,
2013-05-01 07:20:00,59.3,48.3,29.93,WNW,294,4.0,4.0,67,0.00,,,0.00,Wunderground v.1.13,2013-05-01 12:20:00,
2013-05-01 07:25:00,59.2,48.2,29.93,NW,304,4.0,4.0,67,0.00,,,0.00,Wunderground v.1.13,2013-05-01 12:25:00,
2013-05-01 07:30:00,59.2,48.2,29.93,NW,304,4.0,5.0,67,0.00,,,0.00,Wunderground v.1.13,2013-05-01 12:30:00,
2013-05-01 07:40:00,59.3,47.9,29.94,WNW,290,4.0,4.0,66,0.00,,,0.00,Wunderground v.1.13,2013-05-01 12:40:00,
2013-05-01 07:50:00,59.9,48.5,29.94,NW,320,1.0,1.0,66,0.00,,,0.00,Wunderground v.1.13,2013-05-01 12:50:00,
2013-05-01 08:00:00,60.7,48.9,29.94,NW,320,1.0,8.0,65,0.00,,,0.00,Wunderground v.1.13,2013-05-01 13:00:00,
2013-05-01 08:05:00,61.0,49.1,29.95,NW,319,3.0,3.0,65,0.00,,,0.00,Wunderground v.1.13,2013-05-01 13:05:00,
2013-05-01 08:15:00,61.8,49.1,29.95,WNW,295,3.0,8.0,63,0.00,,,0.00,Wunderground v.1.13,2013-05-01 13:15:00,
2013-05-01 08:20:00,62.1,49.4,29.95,WNW,293,3.0,8.0,63,0.00,,,0.00,Wunderground v.1.13,2013-05-01 13:20:00,
2013-05-01 08:25:00,62.7,49.5,29.95,WNW,293,1.0,1.0,62,0.00,,,0.00,Wunderground v.1.13,2013-05-01 13:25:00,
2013-05-01 08:30:00,63.1,49.4,29.95,WNW,294,1.0,8.0,61,0.00,,,0.00,Wunderground v.1.13,2013-05-01 13:30:00,
2013-05-01 08:35:00,63.4,49.7,29.95,WNW,294,2.0,2.0,61,0.00,,,0.00,Wunderground v.1.13,2013-05-01 13:35:00,
2013-05-01 08:45:00,64.2,50.0,29.95,WNW,298,2.0,2.0,60,0.00,,,0.00,Wunderground v.1.13,2013-05-01 13:45:00,
2013-05-01 08:55:00,65.2,50.0,29.96,WNW,291,1.0,8.0,58,0.00,,,0.00,Wunderground v.1.13,2013-05-01 13:55:00,
2013-05-01 09:00:00,65.3,50.6,29.96,WNW,291,2.0,2.0,59,0.00,,,0.00,Wunderground v.1.13,2013-05-01 14:00:00,
2013-05-01 09:05:00,65.6,50.4,29.96,West,268,3.0,3.0,58,0.00,,,0.00,Wunderground v.1.13,2013-05-01 14:05:00,
2013-05-01 09:15:00,65.6,50.4,29.96,WNW,294,4.0,4.0,58,0.00,,,0.00,Wunderground v.1.13,2013-05-01 14:15:00,
2013-05-01 09:25:00,66.1,50.4,29.97,WNW,303,3.0,3.0,57,0.00,,,0.00,Wunderground v.1.13,2013-05-01 14:25:00,
2013-05-01 09:35:00,66.4,50.7,29.97,NW,320,4.0,9.0,57,0.00,,,0.00,Wunderground v.1.13,2013-05-01 14:35:00,
2013-05-01 09:45:00,66.4,50.7,29.98,NW,320,4.0,4.0,57,0.00,,,0.00,Wunderground v.1.13,2013-05-01 14:45:00,
2013-05-01 09:55:00,66.9,51.2,29.97,WNW,286,1.0,1.0,57,0.00,,,0.00,Wunderground v.1.13,2013-05-01 14:55:00,
2013-05-01 10:05:00,67.6,51.3,29.98,WNW,284,1.0,1.0,56,0.00,,,0.00,Wunderground v.1.13,2013-05-01 15:05:00,
2013-05-01 10:15:00,68.3,52.9,29.98,WNW,284,1.0,1.0,58,0.00,,,0.00,Wunderground v.1.13,2013-05-01 15:15:00,
2013-05-01 10:20:00,68.6,51.8,29.98,West,281,1.0,9.0,55,0.00,,,0.00,Wunderground v.1.13,2013-05-01 15:20:00,
2013-05-01 10:30:00,68.8,52.5,29.98,West,275,2.0,2.0,56,0.00,,,0.00,Wunderground v.1.13,2013-05-01 15:30:00,
2013-05-01 10:40:00,69.1,53.2,29.98,WNW,282,2.0,2.0,57,0.00,,,0.00,Wunderground v.1.13,2013-05-01 15:40:00,
2013-05-01 10:50:00,70.3,53.4,29.98,WNW,284,1.0,8.0,55,0.00,,,0.00,Wunderground v.1.13,2013-05-01 15:50:00,
2013-05-01 11:00:00,70.6,52.6,29.99,WNW,285,2.0,2.0,53,0.00,,,0.00,Wunderground v.1.13,2013-05-01 16:00:00,
2013-05-01 11:05:00,70.9,53.4,29.98,WNW,282,2.0,11.0,54,0.00,,,0.00,Wunderground v.1.13,2013-05-01 16:05:00,
2013-05-01 11:15:00,71.1,53.1,29.98,WNW,282,2.0,2.0,53,0.00,,,0.00,Wunderground v.1.13,2013-05-01 16:15:00,
2013-05-01 11:20:00,71.3,52.8,29.98,WNW,282,2.0,2.0,52,0.00,,,0.00,Wunderground v.1.13,2013-05-01 16:20:00,
2013-05-01 11:25:00,71.8,53.2,29.98,WNW,282,1.0,11.0,52,0.00,,,0.00,Wunderground v.1.13,2013-05-01 16:25:00,
2013-05-01 11:30:00,71.5,52.9,29.98,SW,221,1.0,1.0,52,0.00,,,0.00,Wunderground v.1.13,2013-05-01 16:30:00,
2013-05-01 11:35:00,71.8,53.7,29.98,SW,221,1.0,1.0,53,0.00,,,0.00,Wunderground v.1.13,2013-05-01 16:35:00,
2013-05-01 11:40:00,72.5,52.8,29.98,SW,221,0.0,11.0,50,0.00,,,0.00,Wunderground v.1.13,2013-05-01 16:40:00,
2013-05-01 11:45:00,72.8,54.7,29.98,SW,221,0.0,11.0,53,0.00,,,0.00,Wunderground v.1.13,2013-05-01 16:45:00,
2013-05-01 11:55:00,73.3,54.1,29.98,SSE,163,1.0,1.0,51,0.00,,,0.00,Wunderground v.1.13,2013-05-01 16:55:00,
2013-05-01 12:05:00,73.7,52.8,29.97,South,183,2.0,2.0,48,0.00,,,0.00,Wunderground v.1.13,2013-05-01 17:05:00,
2013-05-01 12:15:00,74.7,53.1,29.97,SSE,151,2.0,2.0,47,0.00,,,0.00,Wunderground v.1.13,2013-05-01 17:15:00,
2013-05-01 12:25:00,75.4,53.2,29.97,South,180,2.0,2.0,46,0.00,,,0.00,Wunderground v.1.13,2013-05-01 17:25:00,
2013-05-01 12:30:00,75.6,52.8,29.97,South,177,3.0,3.0,45,0.00,,,0.00,Wunderground v.1.13,2013-05-01 17:30:00,
2013-05-01 12:40:00,76.3,54.0,29.97,West,279,2.0,2.0,46,0.00,,,0.00,Wunderground v.1.13,2013-05-01 17:40:00,
2013-05-01 12:45:00,76.7,56.1,29.97,SW,229,1.0,1.0,49,0.00,,,0.00,Wunderground v.1.13,2013-05-01 17:45:00,
2013-05-01 12:50:00,76.7,52.5,29.97,South,188,0.0,9.0,43,0.00,,,0.00,Wunderground v.1.13,2013-05-01 17:50:00,
2013-05-01 12:55:00,76.8,52.6,29.97,South,185,2.0,9.0,43,0.00,,,0.00,Wunderground v.1.13,2013-05-01 17:55:00,
2013-05-01 13:05:00,76.8,52.0,29.97,SSW,202,5.0,9.0,42,0.00,,,0.00,Wunderground v.1.13,2013-05-01 18:05:00,
2013-05-01 13:15:00,77.7,53.4,29.97,South,185,4.0,4.0,43,0.00,,,0.00,Wunderground v.1.13,2013-05-01 18:15:00,
2013-05-01 13:20:00,78.3,53.3,29.97,WSW,250,3.0,3.0,42,0.00,,,0.00,Wunderground v.1.13,2013-05-01 18:20:00,
2013-05-01 13:30:00,79.0,53.9,29.96,WSW,247,1.0,9.0,42,0.00,,,0.00,Wunderground v.1.13,2013-05-01 18:30:00,
2013-05-01 13:40:00,79.2,52.8,29.96,South,182,2.0,2.0,40,0.00,,,0.00,Wunderground v.1.13,2013-05-01 18:40:00,
2013-05-01 13:45:00,79.2,52.1,29.96,SSW,197,2.0,11.0,39,0.00,,,0.00,Wunderground v.1.13,2013-05-01 18:45:00,
2013-05-01 13:55:00,79.6,52.5,29.96,SSE,148,3.0,3.0,39,0.00,,,0.00,Wunderground v.1.13,2013-05-01 18:55:00,
2013-05-01 14:00:00,80.1,54.3,29.96,South,172,3.0,3.0,41,0.00,,,0.00,Wunderground v.1.13,2013-05-01 19:00:00,
2013-05-01 14:05:00,80.7,54.1,29.96,SW,229,2.0,2.0,40,0.00,,,0.00,Wunderground v.1.13,2013-05-01 19:05:00,
2013-05-01 14:15:00,81.4,53.4,29.96,SW,232,2.0,2.0,38,0.00,,,0.00,Wunderground v.1.13,2013-05-01 19:15:00,
2013-05-01 14:25:00,81.4,56.1,29.96,SW,230,5.0,5.0,42,0.00,,,0.00,Wunderground v.1.13,2013-05-01 19:25:00,
2013-05-01 14:30:00,81.2,54.6,29.96,West,279,3.0,3.0,40,0.00,,,0.00,Wunderground v.1.13,2013-05-01 19:30:00,
2013-05-01 14:40:00,80.1,53.6,29.96,West,279,0.0,10.0,40,0.00,,,0.00,Wunderground v.1.13,2013-05-01 19:40:00,
2013-05-01 14:50:00,79.9,53.4,29.96,West,279,2.0,2.0,40,0.00,,,0.00,Wunderground v.1.13,2013-05-01 19:50:00,
2013-05-01 14:55:00,80.1,52.9,29.96,West,279,1.0,10.0,39,0.00,,,0.00,Wunderground v.1.13,2013-05-01 19:55:00,
2013-05-01 15:00:00,80.5,54.0,29.96,West,276,0.0,10.0,40,0.00,,,0.00,Wunderground v.1.13,2013-05-01 20:00:00,
2013-05-01 15:05:00,80.7,54.8,29.96,SSW,211,0.0,10.0,41,0.00,,,0.00,Wunderground v.1.13,2013-05-01 20:05:00,
2013-05-01 15:15:00,80.5,50.3,29.96,South,183,2.0,2.0,35,0.00,,,0.00,Wunderground v.1.13,2013-05-01 20:15:00,
2013-05-01 15:25:00,81.1,53.8,29.96,SSE,153,2.0,2.0,39,0.00,,,0.00,Wunderground v.1.13,2013-05-01 20:25:00,
2013-05-01 15:30:00,82.0,50.1,29.96,SSE,156,2.0,10.0,33,0.00,,,0.00,Wunderground v.1.13,2013-05-01 20:30:00,
2013-05-01 15:40:00,81.8,50.7,29.96,SW,223,1.0,6.0,34,0.00,,,0.00,Wunderground v.1.13,2013-05-01 20:40:00,
2013-05-01 15:50:00,81.2,49.4,29.96,SSW,212,4.0,9.0,33,0.00,,,0.00,Wunderground v.1.13,2013-05-01 20:50:00,
2013-05-01 15:55:00,81.8,49.9,29.96,SSW,211,5.0,5.0,33,0.00,,,0.00,Wunderground v.1.13,2013-05-01 20:55:00,
2013-05-01 16:00:00,82.4,52.0,29.96,SSW,207,3.0,3.0,35,0.00,,,0.00,Wunderground v.1.13,2013-05-01 21:00:00,
2013-05-01 16:05:00,82.0,50.1,29.96,SW,215,1.0,1.0,33,0.00,,,0.00,Wunderground v.1.13,2013-05-01 21:05:00,
2013-05-01 16:15:00,80.9,52.9,29.96,SSE,148,2.0,2.0,38,0.00,,,0.00,Wunderground v.1.13,2013-05-01 21:15:00,
2013-05-01 16:20:00,80.3,51.7,29.96,SSE,148,1.0,1.0,37,0.00,,,0.00,Wunderground v.1.13,2013-05-01 21:20:00,
2013-05-01 16:25:00,80.1,50.0,29.97,SSE,148,1.0,11.0,35,0.00,,,0.00,Wunderground v.1.13,2013-05-01 21:25:00,
2013-05-01 16:30:00,80.3,50.9,29.97,SSE,148,0.0,11.0,36,0.00,,,0.00,Wunderground v.1.13,2013-05-01 21:30:00,
2013-05-01 16:40:00,80.3,53.8,29.97,ENE,71,1.0,10.0,40,0.00,,,0.00,Wunderground v.1.13,2013-05-01 21:40:00,
2013-05-01 16:45:00,79.6,53.1,29.97,NNW,340,3.0,3.0,40,0.00,,,0.00,Wunderground v.1.13,2013-05-01 21:45:00,
2013-05-01 16:50:00,78.6,53.6,29.97,NE,48,3.0,3.0,42,0.00,,,0.00,Wunderground v.1.13,2013-05-01 21:50:00,
2013-05-01 16:55:00,78.3,54.6,29.97,NNE,13,2.0,2.0,44,0.00,,,0.00,Wunderground v.1.13,2013-05-01 21:55:00,
2013-05-01 17:05:00,78.6,54.2,29.97,NW,313,3.0,3.0,43,0.00,,,0.00,Wunderground v.1.13,2013-05-01 22:05:00,
2013-05-01 17:15:00,79.0,53.9,29.97,NNE,24,3.0,10.0,42,0.00,,,0.00,Wunderground v.1.13,2013-05-01 22:15:00,
2013-05-01 17:20:00,78.5,54.1,29.97,NNE,19,3.0,10.0,43,0.00,,,0.00,Wunderground v.1.13,2013-05-01 22:20:00,
2013-05-01 17:30:00,77.9,54.2,29.97,NNE,22,5.0,10.0,44,0.00,,,0.00,Wunderground v.1.13,2013-05-01 22:30:00,
2013-05-01 17:35:00,77.9,53.6,29.97,North,360,5.0,5.0,43,0.00,,,0.00,Wunderground v.1.13,2013-05-01 22:35:00,
2013-05-01 17:45:00,78.5,54.1,29.97,NNE,14,3.0,9.0,43,0.00,,,0.00,Wunderground v.1.13,2013-05-01 22:45:00,
2013-05-01 17:50:00,78.8,53.1,29.97,North,360,3.0,9.0,41,0.00,,,0.00,Wunderground v.1.13,2013-05-01 22:50:00,
2013-05-01 17:55:00,79.4,53.6,29.97,North,349,4.0,9.0,41,0.00,,,0.00,Wunderground v.1.13,2013-05-01 22:55:00,
2013-05-01 18:05:00,78.6,56.1,29.97,NNE,23,4.0,4.0,46,0.00,,,0.00,Wunderground v.1.13,2013-05-01 23:05:00,
2013-05-01 18:15:00,77.7,55.3,29.97,North,360,5.0,11.0,46,0.00,,,0.00,Wunderground v.1.13,2013-05-01 23:15:00,
2013-05-01 18:25:00,77.2,55.4,29.97,NNE,13,5.0,11.0,47,0.00,,,0.00,Wunderground v.1.13,2013-05-01 23:25:00,
2013-05-01 18:35:00,76.8,54.5,29.97,North,11,5.0,5.0,46,0.00,,,0.00,Wunderground v.1.13,2013-05-01 23:35:00,
2013-05-01 18:45:00,76.3,54.0,29.97,NNE,19,5.0,12.0,46,0.00,,,0.00,Wunderground v.1.13,2013-05-01 23:45:00,
2013-05-01 18:55:00,75.1,54.1,29.98,NNE,32,5.0,12.0,48,0.00,,,0.00,Wunderground v.1.13,2013-05-01 23:55:00,
2013-05-01 19:00:00,74.6,54.2,29.98,North,355,5.0,5.0,49,0.00,,,0.00,Wunderground v.1.13,2013-05-02 00:00:00,
2013-05-01 19:05:00,74.0,54.2,29.98,North,5,5.0,12.0,50,0.00,,,0.00,Wunderground v.1.13,2013-05-02 00:05:00,
2013-05-01 19:15:00,73.0,54.3,29.98,ENE,57,5.0,5.0,52,0.00,,,0.00,Wunderground v.1.13,2013-05-02 00:15:00,
2013-05-01 19:25:00,72.1,54.5,29.98,North,355,4.0,4.0,54,0.00,,,0.00,Wunderground v.1.13,2013-05-02 00:25:00,
2013-05-01 19:30:00,71.6,54.6,29.98,North,360,4.0,11.0,55,0.00,,,0.00,Wunderground v.1.13,2013-05-02 00:30:00,
2013-05-01 19:40:00,70.6,54.1,29.99,North,5,4.0,12.0,56,0.00,,,0.00,Wunderground v.1.13,2013-05-02 00:40:00,
2013-05-01 19:45:00,70.1,54.2,29.99,NNE,25,4.0,4.0,57,0.00,,,0.00,Wunderground v.1.13,2013-05-02 00:45:00,
2013-05-01 19:50:00,69.4,53.5,29.99,ENE,57,6.0,6.0,57,0.00,,,0.00,Wunderground v.1.13,2013-05-02 00:50:00,
2013-05-01 19:55:00,69.1,53.7,30.00,North,355,6.0,12.0,58,0.00,,,0.00,Wunderground v.1.13,2013-05-02 00:55:00,
2013-05-01 20:00:00,68.6,53.7,30.00,North,360,5.0,12.0,59,0.00,,,0.00,Wunderground v.1.13,2013-05-02 01:00:00,
2013-05-01 20:05:00,68.1,53.7,30.01,NNE,13,5.0,12.0,60,0.00,,,0.00,Wunderground v.1.13,2013-05-02 01:05:00,
2013-05-01 20:15:00,67.1,53.2,30.01,NNE,24,5.0,12.0,61,0.00,,,0.00,Wunderground v.1.13,2013-05-02 01:15:00,
2013-05-01 20:25:00,65.8,52.4,30.01,NE,45,7.0,12.0,62,0.00,,,0.00,Wunderground v.1.13,2013-05-02 01:25:00,
2013-05-01 20:35:00,65.2,52.3,30.01,NNE,12,7.0,7.0,63,0.00,,,0.00,Wunderground v.1.13,2013-05-02 01:35:00,
2013-05-01 20:45:00,64.5,51.6,30.03,NNE,30,6.0,15.0,63,0.00,,,0.00,Wunderground v.1.13,2013-05-02 01:45:00,
2013-05-01 20:50:00,64.2,51.8,30.03,North,5,6.0,6.0,64,0.00,,,0.00,Wunderground v.1.13,2013-05-02 01:50:00,
2013-05-01 20:55:00,63.9,51.5,30.04,NNW,338,6.0,15.0,64,0.00,,,0.00,Wunderground v.1.13,2013-05-02 01:55:00,
2013-05-01 21:00:00,63.2,50.8,30.04,NE,38,7.0,7.0,64,0.00,,,0.00,Wunderground v.1.13,2013-05-02 02:00:00,
2013-05-01 21:05:00,62.7,50.3,30.04,NNE,19,6.0,6.0,64,0.00,,,0.00,Wunderground v.1.13,2013-05-02 02:05:00,
2013-05-01 21:15:00,61.6,49.3,30.05,North,355,6.0,14.0,64,0.00,,,0.00,Wunderground v.1.13,2013-05-02 02:15:00,
2013-05-01 21:20:00,60.9,48.2,30.05,NNE,15,7.0,14.0,63,0.00,,,0.00,Wunderground v.1.13,2013-05-02 02:20:00,
2013-05-01 21:25:00,59.6,46.6,30.07,NE,48,8.0,14.0,62,0.00,,,0.00,Wunderground v.1.13,2013-05-02 02:25:00,
2013-05-01 21:30:00,58.9,46.3,30.07,NE,49,8.0,8.0,63,0.00,,,0.00,Wunderground v.1.13,2013-05-02 02:30:00,
2013-05-01 21:40:00,57.6,43.8,30.08,NNE,24,7.0,14.0,60,0.00,,,0.00,Wunderground v.1.13,2013-05-02 02:40:00,
2013-05-01 21:50:00,56.6,43.7,30.08,NNE,18,7.0,14.0,62,0.00,,,0.00,Wunderground v.1.13,2013-05-02 02:50:00,
2013-05-01 21:55:00,56.3,43.0,30.09,NNE,32,6.0,14.0,61,0.00,,,0.00,Wunderground v.1.13,2013-05-02 02:55:00,
2013-05-01 22:00:00,55.9,42.6,30.09,ENE,78,7.0,14.0,61,0.00,,,0.00,Wunderground v.1.13,2013-05-02 03:00:00,
2013-05-01 22:05:00,55.7,42.5,30.09,North,9,7.0,19.0,61,0.00,,,0.00,Wunderground v.1.13,2013-05-02 03:05:00,
2013-05-01 22:15:00,55.6,42.8,30.10,NNE,31,6.0,19.0,62,0.00,,,0.00,Wunderground v.1.13,2013-05-02 03:15:00,
2013-05-01 22:25:00,55.1,41.9,30.10,NE,39,7.0,7.0,61,0.00,,,0.00,Wunderground v.1.13,2013-05-02 03:25:00,
2013-05-01 22:35:00,54.8,41.6,30.10,NE,49,5.0,18.0,61,0.00,,,0.00,Wunderground v.1.13,2013-05-02 03:35:00,
2013-05-01 22:40:00,54.8,41.6,30.10,NNE,28,6.0,6.0,61,0.00,,,0.00,Wunderground v.1.13,2013-05-02 03:40:00,
2013-05-01 22:45:00,54.7,41.9,30.10,NE,38,6.0,6.0,62,0.00,,,0.00,Wunderground v.1.13,2013-05-02 03:45:00,
2013-05-01 22:55:00,54.4,41.6,30.11,NNE,22,5.0,18.0,62,0.00,,,0.00,Wunderground v.1.13,2013-05-02 03:55:00,
2013-05-01 23:05:00,53.9,40.8,30.12,NNE,20,6.0,16.0,61,0.00,,,0.00,Wunderground v.1.13,2013-05-02 04:05:00,
2013-05-01 23:10:00,53.8,40.7,30.12,ENE,57,7.0,16.0,61,0.00,,,0.00,Wunderground v.1.13,2013-05-02 04:10:00,
2013-05-01 23:15:00,53.6,40.9,30.12,North,360,8.0,8.0,62,0.00,,,0.00,Wunderground v.1.13,2013-05-02 04:15:00,
2013-05-01 23:20:00,53.5,40.8,30.12,NNE,25,8.0,8.0,62,0.00,,,0.00,Wunderground v.1.13,2013-05-02 04:20:00,
2013-05-01 23:30:00,53.3,40.6,30.11,ENE,67,7.0,16.0,62,0.00,,,0.00,Wunderground v.1.13,2013-05-02 04:30:00,
2013-05-01 23:35:00,53.2,40.9,30.11,NE,40,7.0,7.0,63,0.00,,,0.00,Wunderground v.1.13,2013-05-02 04:35:00,
2013-05-01 23:45:00,53.1,40.8,30.12,NNE,15,5.0,5.0,63,0.00,,,0.00,Wunderground v.1.13,2013-05-02 04:45:00,
2013-05-01 23:50:00,52.9,40.6,30.12,NE,35,4.0,18.0,63,0.00,,,0.00,Wunderground v.1.13,2013-05-02 04:50:00,
2013-05-01 23:55:00,52.5,39.8,30.12,ENE,68,5.0,18.0,62,0.00,,,0.00,Wunderground v.1.13,2013-05-02 04:55:00,